Meteo Giornale » Osservazioni meteo Cina » Hangzhou
ore: 09:00 - Osservazioni Meteo Hangzhou
Lat. 30° 14' N Lon. 120° 10' E Alt. 43 metri s.l.m.
29 °C
Poco Nuvoloso
Temp. 24 Ore
26 °C
34 °C
Nord
7.2 Km/h
Dew point 25 °C
Umidità 79 %
Visibilità 10 Km
Il sole sorge alle ore 05:35
Il sole tramonta alle ore 18:22
| Data e Ora | Cielo e Fenomeni | T °C | DP °C | Um. % | Pres. hPa | Vis. km | Vento km/h | |
|---|---|---|---|---|---|---|---|---|
| Oggi h: 09:00 | Poco Nuvoloso | 29 | 25 | 79 | 1008 | 10 | N 7.2 | |
| Oggi h: 08:30 | Poco Nuvoloso | 29 | 26 | 83 | 1008 | 10 | N 7.2 | |
| Oggi h: 08:00 | Poco Nuvoloso | 28 | 25 | 83 | 1008 | 10 | N 7.2 | |
| Oggi h: 07:30 | Poco Nuvoloso | 27 | 25 | 88 | 1008 | 7 | N 7.2 | |
| Oggi h: 07:00 | Poco Nuvoloso | 27 | 25 | 88 | 1008 | 6 | N 7.2 | |
| Oggi h: 06:30 | Foschia | 27 | 25 | 88 | 1008 | 5 | N 7.2 | |
| Oggi h: 06:00 | Foschia | 27 | 25 | 88 | 1007 | 5 | N/NO 10.8 | |
| Oggi h: 05:30 | Nuvoloso | 27 | 25 | 88 | 1007 | 6 | N 7.2 | |
| Oggi h: 05:00 | Nuvoloso | 26 | 25 | 94 | 1007 | 6 | N 7.2 | |
| Oggi h: 04:30 | Molto Nuvoloso | 26 | 25 | 94 | 1007 | 6 | N 7.2 | |
| Oggi h: 04:00 | Foschia | 26 | 26 | 100 | 1007 | 5 | N 7.2 | |
| Oggi h: 03:30 | Foschia | 26 | 25 | 94 | 1007 | 5 | N 3.6 | |
| Oggi h: 03:00 | Nuvoloso | 26 | 26 | 100 | 1007 | 6 | N 7.2 | |
| Oggi h: 02:30 | Nuvoloso | 27 | 26 | 94 | 1007 | 7 | N 7.2 | |
| Oggi h: 02:00 | Nuvoloso | 27 | 26 | 94 | 1007 | 8 | N 7.2 | |
| Oggi h: 01:30 | Molto Nuvoloso | 27 | 26 | 94 | 1007 | 10 | N 7.2 | |
| Oggi h: 01:00 | Molto Nuvoloso | 27 | 26 | 94 | 1007 | 10 | N/NO 10.8 | |
| Oggi h: 00:30 | Pioggia | 27 | 26 | 94 | 1007 | 10 | N 10.8 | |
| Oggi h: 00:00 | Molto Nuvoloso | 27 | 26 | 94 | 1007 | 8 | N/NO 10.8 | |
| Ieri h: 23:30 | Molto Nuvoloso | 28 | 26 | 88 | 1007 | 8 | N 7.2 | |
| Ieri h: 23:00 | Molto Nuvoloso | 27 | 27 | 100 | 1007 | 8 | N 3.6 | |
| Ieri h: 22:30 | Molto Nuvoloso | 27 | 27 | 100 | 1007 | 8 | N 3.6 | |
| Ieri h: 22:00 | Pioggia | 27 | 26 | 94 | 1007 | 10 | N 10.8 | |
| Ieri h: 21:30 | Pioggia | 27 | 26 | 94 | 1007 | 10 | N 7.2 | |
| Ieri h: 21:18 | Temporale | 27 | 26 | 94 | 1007 | 6 | N 3.6 | |
| Ieri h: 21:00 | Temporale | 27 | 26 | 94 | 1007 | 3 | N 7.2 | |
| Ieri h: 20:42 | Temporale | 27 | 26 | 94 | 1007 | 6 | O 14.4 | |
| Ieri h: 20:30 | Temporale | 28 | 26 | 88 | 1006 | 10 | O 14.4 | |
| Ieri h: 20:22 | Temporale | 28 | 26 | 88 | 1006 | 10 | O/NO 18 | |
| Ieri h: 20:05 | Temporale | 28 | 26 | 88 | 1006 | 7 | N 14.4 | |
| Ieri h: 20:00 | Temporale | 28 | 26 | 88 | 1006 | 10 | N 21.6 | |
| Ieri h: 19:46 | Temporale | 29 | 26 | 83 | 1005 | 7 | N 21.6 | |
| Ieri h: 19:30 | Temporale | 29 | 26 | 83 | 1005 | 10 | N 21.6 | |
| Ieri h: 19:00 | Temporale | 29 | 26 | 83 | 1004 | 10 | N 25.2 | |
| Ieri h: 18:41 | Temporale | 30 | 26 | 79 | 1004 | 10 | N 25.2 | |
| Ieri h: 18:30 | Nuvoloso | 30 | 26 | 79 | 1004 | 10 | N 21.6 | |
| Ieri h: 18:00 | Nuvoloso | 31 | 26 | 74 | 1004 | 10 | N 25.2 | |
| Ieri h: 17:30 | Poco Nuvoloso | 33 | 26 | 66 | 1004 | 10 | NE 21.6 | |
| Ieri h: 17:00 | Poco Nuvoloso | 34 | 26 | 63 | 1003 | 10 | E/NE 18 | |
| Ieri h: 16:30 | Poco Nuvoloso | 33 | 25 | 62 | 1003 | 10 | E 14.4 | |
| Ieri h: 16:00 | Poco Nuvoloso | 34 | 25 | 59 | 1003 | 10 | E/SE 10.8 | |
| Ieri h: 15:30 | Nuvoloso | 34 | 24 | 56 | 1003 | 10 | SE 10.8 | |
| Ieri h: 15:00 | Nuvoloso | 34 | 25 | 59 | 1003 | 10 | S/SE 14.4 | |
| Ieri h: 14:30 | Nuvoloso | 34 | 25 | 59 | 1003 | 10 | N 7.2 | |
| Ieri h: 14:00 | Molto Nuvoloso | 33 | 24 | 59 | 1003 | 10 | S/SE 14.4 | |
| Ieri h: 13:30 | Molto Nuvoloso | 33 | 25 | 62 | 1004 | 10 | S 14.4 | |
| Ieri h: 13:00 | Molto Nuvoloso | 34 | 25 | 59 | 1004 | 10 | S 14.4 | |
| Ieri h: 12:30 | Molto Nuvoloso | 33 | 25 | 62 | 1004 | 10 | SE 14.4 | |
| Ieri h: 12:00 | Molto Nuvoloso | 33 | 25 | 62 | 1004 | 10 | N 3.6 | |
| Ieri h: 11:30 | Sereno | 33 | 25 | 62 | 1004 | 10 | N 7.2 | |
| Ieri h: 11:00 | Molto Nuvoloso | 32 | 25 | 66 | 1005 | 10 | S 10.8 | |
| Ieri h: 10:30 | Molto Nuvoloso | 33 | 25 | 62 | 1005 | 10 | N 7.2 | |
| Ieri h: 10:00 | Nuvoloso | 33 | 25 | 62 | 1005 | 10 | N 7.2 | |



